QPF
0.00 0.00 0.00 0.00 0.00 0.01 0.02 0.03 0.01 0.01 0.00 0.01 0.01 0.01 0.02 0.02 0.03 0.05 0.01 0.00 0.00 0.00 0.00 0.00 0.00 0.00 0.00 0.00 0.00 0.01 0.01 0.02 0.01 0.01 0.01 0.01 0.01 0.01 0.01 0.01 0.02 0.01 0.01 0.01 0.01 0.01 0.02 0.01 0.01
0.00 0.00 0.00 0.00 0.01 0.02 0.02 0.02 0.02 0.00 0.00 0.00 0.01 0.00 0.00 0.00 0.00 0.00 0.00 0.00 0.00 0.00 0.00 0.00 0.00 0.00 0.00 0.00 0.00 0.01 0.01 0.01 0.01 0.01 0.01 0.01 0.01 0.01 0.01 0.01 0.02 0.02 0.02 0.02 0.02 0.02 0.02 0.02 0.01
0.00 0.00 0.00 0.00 0.02 0.04 0.02 0.00 0.01 0.00 0.00 0.00 0.00 0.00 0.00 0.01 0.00 0.00 0.00 0.00 0.00 0.00 0.00 0.00 0.00 0.00 0.00 0.00 0.00 0.00 0.00 0.00 0.00 0.01 0.01 0.01 0.01 0.01 0.02 0.01 0.02 0.02 0.02 0.01 0.01 0.01 0.02 0.02 0.02
0.00 0.00 0.00 0.01 0.02 0.04 0.02 0.01 0.01 0.00 0.00 0.00 0.00 0.00 0.00 0.00 0.00 0.01 0.00 0.00 0.00 0.00 0.00 0.00 0.00 0.00 0.00 0.00 0.00 0.00 0.00 0.01 0.01 0.01 0.01 0.01 0.01 0.01 0.02 0.02 0.02 0.01 0.01 0.02 0.01 0.02 0.01 0.02 0.01
0.00 0.00 0.00 0.00 0.01 0.01 0.01 0.01 0.01 0.00 0.00 0.00 0.00 0.00 0.00 0.00 0.00 0.00 0.00 0.00 0.00 0.00 0.00 0.00 0.00 0.00 0.00 0.00 0.00 0.00 0.01 0.01 0.01 0.01 0.01 0.01 0.01 0.01 0.02 0.02 0.02 0.02 0.02 0.02 0.02 0.02 0.02 0.02 0.01
0.00 0.00 0.00 0.00 0.01 0.00 0.00 0.00 0.01 0.01 0.01 0.00 0.00 0.00 0.00 0.00 0.01 0.00 0.00 0.00 0.00 0.00 0.00 0.00 0.00 0.00 0.00 0.01 0.00 0.01 0.01 0.01 0.01 0.01 0.01 0.01 0.01 0.01 0.02 0.02 0.02 0.02 0.02 0.02 0.02 0.02 0.02 0.02 0.02
0.00 0.00 0.00 0.01 0.01 0.00 0.00 0.00 0.00 0.00 0.03 0.01 0.01 0.00 0.01 0.01 0.02 0.01 0.00 0.00 0.01 0.01 0.01 0.01 0.01 0.01 0.01 0.01 0.01 0.00 0.01 0.01 0.01 0.01 0.00 0.01 0.01 0.01 0.01 0.01 0.02 0.02 0.02 0.02 0.02 0.02 0.02 0.02 0.01
0.00 0.00 0.00 0.01 0.01 0.00 0.00 0.00 0.00 0.00 0.04 0.02 0.01 0.00 0.00 0.01 0.01 0.01 0.00 0.01 0.01 0.01 0.01 0.01 0.02 0.04 0.04 0.03 0.02 0.01 0.01 0.01 0.01 0.01 0.01 0.01 0.01 0.02 0.02 0.02 0.02 0.02 0.02 0.02 0.02 0.02 0.02 0.02 0.01
0.00 0.00 0.01 0.01 0.01 0.01 0.01 0.01 0.00 0.01 0.04 0.03 0.03 0.00 0.00 0.01 0.01 0.01 0.01 0.01 0.02 0.02 0.02 0.03 0.03 0.04 0.05 0.05 0.04 0.03 0.02 0.02 0.02 0.02 0.02 0.03 0.03 0.04 0.04 0.02 0.02 0.02 0.02 0.02 0.02 0.03 0.04 0.03 0.01
0.00 0.00 0.00 0.00 0.00 0.00 0.01 0.01 0.01 0.01 0.05 0.08 0.02 0.00 0.01 0.01 0.01 0.01 0.02 0.02 0.02 0.03 0.05 0.03 0.02 0.03 0.04 0.04 0.06 0.06 0.06 0.05 0.05 0.06 0.05 0.05 0.05 0.05 0.04 0.03 0.03 0.04 0.04 0.04 0.03 0.05 0.04 0.02 0.01
0.00 0.00 0.01 0.01 0.00 0.00 0.00 0.00 0.01 0.01 0.02 0.08 0.04 0.00 0.01 0.01 0.01 0.02 0.03 0.04 0.05 0.03 0.02 0.02 0.03 0.03 0.03 0.05 0.05 0.06 0.08 0.09 0.08 0.08 0.08 0.08 0.07 0.05 0.04 0.04 0.04 0.04 0.04 0.03 0.05 0.05 0.02 0.02 0.03
0.00 0.00 0.01 0.00 0.00 0.00 0.00 0.00 0.01 0.01 0.02 0.02 0.02 0.01 0.01 0.01 0.02 0.03 0.05 0.09 0.07 0.04 0.02 0.03 0.06 0.08 0.07 0.06 0.05 0.06 0.06 0.08 0.07 0.07 0.07 0.08 0.08 0.06 0.05 0.05 0.04 0.05 0.05 0.06 0.07 0.06 0.04 0.03 0.04
0.00 0.00 0.00 0.00 0.00 0.00 0.00 0.00 0.02 0.02 0.01 0.02 0.02 0.01 0.01 0.01 0.02 0.03 0.05 0.06 0.05 0.04 0.05 0.05 0.07 0.11 0.12 0.07 0.09 0.07 0.06 0.07 0.10 0.09 0.08 0.08 0.08 0.06 0.06 0.07 0.07 0.08 0.08 0.07 0.08 0.06 0.06 0.07 0.06
0.00 0.00 0.00 0.00 0.00 0.01 0.00 0.00 0.00 0.01 0.01 0.02 0.03 0.02 0.01 0.01 0.01 0.02 0.03 0.03 0.04 0.05 0.06 0.07 0.09 0.07 0.07 0.06 0.07 0.08 0.06 0.06 0.09 0.13 0.12 0.08 0.07 0.07 0.08 0.08 0.10 0.08 0.06 0.07 0.08 0.08 0.09 0.10 0.08
0.00 0.00 0.00 0.00 0.00 0.01 0.01 0.01 0.01 0.01 0.02 0.03 0.04 0.04 0.03 0.01 0.01 0.02 0.03 0.03 0.04 0.06 0.07 0.07 0.07 0.07 0.06 0.08 0.07 0.06 0.06 0.06 0.05 0.08 0.11 0.08 0.07 0.08 0.09 0.10 0.09 0.09 0.08 0.10 0.10 0.10 0.10 0.09 0.09
0.00 0.00 0.01 0.00 0.00 0.01 0.01 0.02 0.02 0.02 0.03 0.02 0.03 0.03 0.01 0.01 0.01 0.02 0.04 0.04 0.05 0.07 0.08 0.09 0.08 0.09 0.10 0.09 0.07 0.06 0.05 0.05 0.05 0.05 0.05 0.07 0.09 0.07 0.08 0.07 0.08 0.10 0.10 0.10 0.10 0.12 0.12 0.12 0.13
0.01 0.02 0.02 0.01 0.01 0.01 0.01 0.03 0.04 0.04 0.04 0.03 0.02 0.01 0.02 0.01 0.02 0.04 0.03 0.06 0.06 0.06 0.08 0.09 0.08 0.08 0.11 0.10 0.08 0.07 0.06 0.05 0.05 0.05 0.05 0.06 0.06 0.06 0.08 0.08 0.09 0.09 0.08 0.10 0.09 0.12 0.13 0.14 0.14
0.02 0.02 0.01 0.01 0.00 0.00 0.01 0.02 0.05 0.06 0.09 0.08 0.03 0.01 0.01 0.02 0.03 0.05 0.09 0.11 0.10 0.07 0.07 0.09 0.09 0.10 0.12 0.12 0.09 0.09 0.07 0.06 0.06 0.05 0.04 0.04 0.04 0.04 0.06 0.06 0.06 0.07 0.08 0.09 0.10 0.12 0.12 0.11 0.12
0.01 0.02 0.03 0.02 0.01 0.01 0.01 0.03 0.06 0.08 0.08 0.06 0.02 0.02 0.02 0.03 0.04 0.06 0.09 0.06 0.08 0.09 0.08 0.08 0.09 0.11 0.11 0.10 0.09 0.10 0.10 0.09 0.09 0.08 0.06 0.06 0.05 0.05 0.06 0.06 0.08 0.09 0.10 0.11 0.12 0.12 0.11 0.11 0.14
0.02 0.04 0.04 0.02 0.01 0.01 0.01 0.03 0.06 0.07 0.05 0.04 0.03 0.03 0.05 0.07 0.04 0.05 0.06 0.06 0.06 0.06 0.06 0.09 0.11 0.12 0.12 0.10 0.09 0.09 0.10 0.10 0.11 0.12 0.13 0.11 0.08 0.07 0.07 0.08 0.09 0.09 0.09 0.09 0.11 0.12 0.10 0.10 0.14
0.02 0.03 0.02 0.01 0.00 0.01 0.01 0.03 0.04 0.03 0.02 0.04 0.07 0.07 0.06 0.04 0.04 0.04 0.04 0.08 0.08 0.07 0.05 0.06 0.07 0.09 0.12 0.12 0.10 0.09 0.09 0.07 0.07 0.07 0.07 0.06 0.05 0.04 0.05 0.06 0.07 0.07 0.07 0.07 0.08 0.09 0.09 0.08 0.11
0.01 0.01 0.01 0.01 0.01 0.01 0.01 0.03 0.03 0.03 0.02 0.06 0.08 0.05 0.02 0.02 0.03 0.03 0.04 0.07 0.09 0.08 0.07 0.07 0.06 0.09 0.14 0.17 0.12 0.08 0.07 0.07 0.07 0.07 0.06 0.05 0.04 0.03 0.03 0.03 0.04 0.04 0.04 0.05 0.05 0.06 0.07 0.09 0.09
0.01 0.01 0.01 0.01 0.01 0.02 0.02 0.03 0.02 0.02 0.04 0.06 0.07 0.06 0.03 0.02 0.02 0.03 0.03 0.04 0.06 0.08 0.09 0.09 0.08 0.09 0.10 0.11 0.10 0.08 0.08 0.09 0.08 0.07 0.05 0.04 0.02 0.02 0.02 0.02 0.02 0.03 0.04 0.03 0.04 0.04 0.06 0.07 0.07
0.00 0.01 0.01 0.01 0.01 0.03 0.02 0.02 0.04 0.05 0.07 0.07 0.06 0.04 0.03 0.03 0.03 0.03 0.03 0.04 0.06 0.07 0.09 0.11 0.10 0.08 0.08 0.08 0.09 0.08 0.08 0.08 0.09 0.09 0.07 0.04 0.03 0.03 0.03 0.03 0.02 0.02 0.03 0.03 0.03 0.04 0.05 0.06 0.07
0.00 0.01 0.03 0.05 0.04 0.04 0.02 0.04 0.07 0.05 0.03 0.03 0.03 0.04 0.07 0.07 0.04 0.03 0.03 0.04 0.05 0.06 0.08 0.08 0.10 0.09 0.08 0.07 0.07 0.08 0.08 0.09 0.08 0.07 0.06 0.04 0.03 0.03 0.03 0.02 0.02 0.03 0.02 0.03 0.04 0.04 0.05 0.05 0.06
0.01 0.01 0.05 0.07 0.05 0.03 0.03 0.04 0.04 0.02 0.01 0.01 0.02 0.06 0.11 0.07 0.04 0.05 0.04 0.03 0.04 0.05 0.05 0.05 0.07 0.08 0.08 0.06 0.06 0.06 0.06 0.06 0.05 0.05 0.04 0.03 0.02 0.01 0.01 0.01 0.01 0.01 0.02 0.03 0.03 0.04 0.05 0.05 0.06
0.01 0.01 0.02 0.06 0.05 0.04 0.04 0.03 0.03 0.01 0.02 0.01 0.03 0.05 0.05 0.04 0.04 0.05 0.04 0.02 0.03 0.05 0.05 0.06 0.06 0.07 0.06 0.05 0.04 0.04 0.05 0.05 0.05 0.06 0.05 0.03 0.01 0.01 0.01 0.00 0.00 0.01 0.01 0.02 0.02 0.03 0.04 0.04 0.05
0.00 0.00 0.01 0.05 0.06 0.05 0.04 0.03 0.04 0.03 0.03 0.04 0.03 0.02 0.03 0.03 0.04 0.04 0.04 0.03 0.03 0.07 0.10 0.13 0.11 0.08 0.05 0.04 0.03 0.03 0.04 0.04 0.04 0.05 0.06 0.04 0.01 0.01 0.01 0.01 0.01 0.01 0.01 0.01 0.02 0.03 0.03 0.03 0.03
0.01 0.00 0.01 0.02 0.03 0.05 0.07 0.06 0.04 0.03 0.02 0.03 0.03 0.04 0.04 0.05 0.04 0.05 0.04 0.03 0.03 0.05 0.06 0.06 0.06 0.04 0.03 0.04 0.04 0.04 0.03 0.03 0.03 0.05 0.05 0.03 0.01 0.01 0.01 0.01 0.01 0.01 0.01 0.02 0.03 0.02 0.02 0.02 0.02
0.01 0.01 0.01 0.02 0.02 0.03 0.06 0.09 0.03 0.02 0.02 0.04 0.06 0.05 0.03 0.04 0.04 0.05 0.05 0.04 0.04 0.04 0.03 0.03 0.03 0.04 0.04 0.05 0.06 0.05 0.04 0.04 0.04 0.05 0.05 0.04 0.03 0.02 0.02 0.01 0.01 0.01 0.02 0.02 0.02 0.02 0.01 0.01 0.02
MSLP
1007.60 1008.24 1008.90 1009.42 1009.66 1009.58 1009.18 1008.57 1007.89 1007.29 1006.89 1006.75 1006.84 1007.10 1007.41 1007.67 1007.81 1007.82 1007.75 1007.69 1007.73 1007.97 1008.42 1009.06 1009.80 1010.54 1011.15 1011.59 1011.81 1011.88 1011.86 1011.87 1011.98 1012.25 1012.66 1013.17 1013.67 1014.10 1014.37 1014.47 1014.43 1014.29 1014.15 1014.05 1014.05 1014.14 1014.30 1014.47 1014.60
1007.49 1008.18 1008.84 1009.33 1009.51 1009.35 1008.88 1008.20 1007.46 1006.81 1006.38 1006.20 1006.27 1006.50 1006.80 1007.05 1007.21 1007.27 1007.27 1007.31 1007.47 1007.82 1008.38 1009.10 1009.89 1010.65 1011.26 1011.68 1011.89 1011.95 1011.93 1011.94 1012.07 1012.35 1012.76 1013.25 1013.73 1014.12 1014.37 1014.45 1014.39 1014.27 1014.15 1014.10 1014.13 1014.25 1014.43 1014.60 1014.71
1007.47 1008.14 1008.74 1009.13 1009.22 1008.97 1008.44 1007.72 1006.98 1006.35 1005.93 1005.77 1005.85 1006.07 1006.35 1006.60 1006.75 1006.82 1006.86 1006.96 1007.19 1007.62 1008.25 1009.04 1009.89 1010.68 1011.32 1011.77 1012.00 1012.08 1012.09 1012.12 1012.25 1012.52 1012.90 1013.34 1013.77 1014.10 1014.31 1014.37 1014.32 1014.24 1014.17 1014.17 1014.26 1014.43 1014.64 1014.81 1014.91
1007.58 1008.16 1008.64 1008.91 1008.88 1008.55 1007.98 1007.27 1006.58 1006.01 1005.67 1005.57 1005.68 1005.91 1006.17 1006.38 1006.50 1006.54 1006.57 1006.68 1006.94 1007.41 1008.08 1008.91 1009.80 1010.64 1011.33 1011.82 1012.11 1012.24 1012.29 1012.36 1012.50 1012.74 1013.07 1013.45 1013.80 1014.08 1014.23 1014.28 1014.25 1014.21 1014.20 1014.28 1014.43 1014.65 1014.88 1015.06 1015.15
1007.76 1008.22 1008.56 1008.69 1008.55 1008.16 1007.59 1006.94 1006.33 1005.88 1005.65 1005.63 1005.79 1006.03 1006.26 1006.41 1006.47 1006.45 1006.42 1006.49 1006.73 1007.20 1007.88 1008.73 1009.65 1010.53 1011.27 1011.82 1012.18 1012.38 1012.49 1012.59 1012.73 1012.96 1013.24 1013.54 1013.82 1014.03 1014.15 1014.18 1014.17 1014.17 1014.23 1014.36 1014.58 1014.84 1015.08 1015.26 1015.33
1007.95 1008.28 1008.47 1008.47 1008.25 1007.83 1007.28 1006.72 1006.24 1005.93 1005.83 1005.91 1006.12 1006.36 1006.55 1006.64 1006.61 1006.50 1006.40 1006.41 1006.60 1007.02 1007.68 1008.52 1009.44 1010.33 1011.11 1011.72 1012.14 1012.40 1012.57 1012.71 1012.87 1013.08 1013.31 1013.56 1013.77 1013.92 1014.00 1014.03 1014.04 1014.07 1014.18 1014.36 1014.60 1014.88 1015.13 1015.29 1015.34
1008.03 1008.23 1008.31 1008.21 1007.93 1007.52 1007.04 1006.59 1006.26 1006.10 1006.12 1006.29 1006.54 1006.78 1006.93 1006.95 1006.84 1006.65 1006.48 1006.41 1006.53 1006.89 1007.49 1008.28 1009.16 1010.04 1010.82 1011.45 1011.91 1012.23 1012.45 1012.63 1012.81 1013.01 1013.22 1013.42 1013.59 1013.70 1013.75 1013.77 1013.79 1013.85 1013.97 1014.17 1014.42 1014.70 1014.93 1015.07 1015.09
1007.94 1008.05 1008.03 1007.87 1007.58 1007.21 1006.82 1006.49 1006.29 1006.26 1006.39 1006.63 1006.91 1007.14 1007.26 1007.23 1007.06 1006.82 1006.58 1006.45 1006.51 1006.80 1007.32 1008.02 1008.83 1009.64 1010.38 1011.00 1011.47 1011.82 1012.08 1012.29 1012.49 1012.69 1012.90 1013.08 1013.23 1013.32 1013.36 1013.37 1013.40 1013.46 1013.58 1013.78 1014.01 1014.26 1014.46 1014.58 1014.58
1007.68 1007.72 1007.65 1007.47 1007.20 1006.89 1006.59 1006.37 1006.28 1006.34 1006.54 1006.82 1007.11 1007.33 1007.43 1007.37 1007.18 1006.92 1006.66 1006.50 1006.51 1006.73 1007.16 1007.76 1008.46 1009.17 1009.83 1010.38 1010.83 1011.17 1011.45 1011.69 1011.91 1012.14 1012.36 1012.55 1012.70 1012.79 1012.83 1012.85 1012.86 1012.92 1013.03 1013.20 1013.41 1013.62 1013.79 1013.88 1013.87
1007.32 1007.32 1007.24 1007.07 1006.84 1006.58 1006.36 1006.21 1006.19 1006.30 1006.52 1006.80 1007.07 1007.28 1007.37 1007.32 1007.15 1006.91 1006.67 1006.52 1006.51 1006.67 1007.01 1007.49 1008.06 1008.64 1009.19 1009.66 1010.05 1010.37 1010.64 1010.90 1011.16 1011.42 1011.67 1011.89 1012.06 1012.16 1012.22 1012.24 1012.26 1012.30 1012.39 1012.53 1012.70 1012.88 1013.02 1013.10 1013.08
1006.97 1006.97 1006.90 1006.75 1006.56 1006.35 1006.17 1006.07 1006.06 1006.16 1006.35 1006.59 1006.82 1007.01 1007.10 1007.07 1006.95 1006.78 1006.60 1006.48 1006.48 1006.61 1006.87 1007.24 1007.67 1008.11 1008.53 1008.91 1009.23 1009.51 1009.78 1010.05 1010.34 1010.64 1010.93 1011.19 1011.39 1011.53 1011.60 1011.64 1011.66 1011.69 1011.76 1011.88 1012.02 1012.18 1012.31 1012.38 1012.38
1006.77 1006.79 1006.74 1006.62 1006.46 1006.28 1006.11 1005.99 1005.94 1005.98 1006.09 1006.25 1006.43 1006.58 1006.67 1006.68 1006.63 1006.54 1006.44 1006.38 1006.40 1006.52 1006.72 1006.99 1007.31 1007.64 1007.94 1008.23 1008.49 1008.74 1009.01 1009.29 1009.61 1009.94 1010.27 1010.56 1010.80 1010.97 1011.07 1011.13 1011.15 1011.19 1011.25 1011.35 1011.49 1011.63 1011.76 1011.84 1011.86
1006.82 1006.86 1006.83 1006.74 1006.59 1006.41 1006.21 1006.04 1005.91 1005.84 1005.84 1005.90 1005.99 1006.09 1006.17 1006.22 1006.23 1006.22 1006.21 1006.22 1006.27 1006.39 1006.55 1006.76 1007.00 1007.24 1007.48 1007.71 1007.93 1008.17 1008.43 1008.73 1009.07 1009.43 1009.78 1010.10 1010.36 1010.56 1010.68 1010.76 1010.80 1010.84 1010.91 1011.01 1011.14 1011.28 1011.42 1011.52 1011.56
1007.15 1007.21 1007.20 1007.12 1006.96 1006.75 1006.50 1006.24 1006.00 1005.81 1005.68 1005.62 1005.61 1005.65 1005.71 1005.77 1005.83 1005.89 1005.94 1006.00 1006.09 1006.21 1006.36 1006.54 1006.74 1006.95 1007.17 1007.38 1007.61 1007.86 1008.13 1008.45 1008.79 1009.15 1009.50 1009.82 1010.09 1010.30 1010.45 1010.53 1010.59 1010.65 1010.72 1010.83 1010.96 1011.11 1011.26 1011.38 1011.44
1007.71 1007.78 1007.77 1007.68 1007.50 1007.25 1006.93 1006.59 1006.24 1005.92 1005.67 1005.49 1005.38 1005.35 1005.37 1005.43 1005.50 1005.58 1005.66 1005.75 1005.85 1005.98 1006.13 1006.32 1006.53 1006.76 1007.00 1007.25 1007.51 1007.79 1008.09 1008.41 1008.74 1009.08 1009.41 1009.71 1009.96 1010.16 1010.30 1010.40 1010.47 1010.54 1010.63 1010.73 1010.87 1011.02 1011.17 1011.29 1011.36
1008.37 1008.44 1008.42 1008.31 1008.10 1007.80 1007.43 1007.01 1006.57 1006.15 1005.80 1005.52 1005.34 1005.24 1005.22 1005.24 1005.29 1005.36 1005.43 1005.51 1005.60 1005.73 1005.89 1006.09 1006.34 1006.62 1006.93 1007.25 1007.58 1007.91 1008.23 1008.54 1008.85 1009.14 1009.42 1009.66 1009.87 1010.04 1010.17 1010.28 1010.36 1010.43 1010.52 1010.62 1010.75 1010.89 1011.02 1011.13 1011.20
1009.00 1009.05 1009.02 1008.88 1008.65 1008.32 1007.91 1007.44 1006.95 1006.48 1006.06 1005.72 1005.48 1005.33 1005.26 1005.24 1005.25 1005.27 1005.29 1005.33 1005.39 1005.49 1005.65 1005.87 1006.17 1006.53 1006.93 1007.34 1007.74 1008.12 1008.46 1008.75 1009.01 1009.24 1009.43 1009.60 1009.75 1009.88 1009.99 1010.09 1010.17 1010.25 1010.33 1010.42 1010.52 1010.62 1010.72 1010.80 1010.85
1009.51 1009.53 1009.47 1009.32 1009.08 1008.75 1008.33 1007.85 1007.35 1006.86 1006.42 1006.06 1005.80 1005.62 1005.51 1005.44 1005.40 1005.35 1005.30 1005.27 1005.26 1005.32 1005.46 1005.70 1006.04 1006.47 1006.94 1007.44 1007.91 1008.32 1008.67 1008.94 1009.14 1009.28 1009.38 1009.47 1009.55 1009.63 1009.71 1009.80 1009.88 1009.96 1010.03 1010.09 1010.15 1010.20 1010.24 1010.28 1010.30
1009.82 1009.82 1009.75 1009.61 1009.38 1009.07 1008.68 1008.23 1007.75 1007.29 1006.87 1006.53 1006.27 1006.08 1005.95 1005.85 1005.74 1005.63 1005.50 1005.38 1005.30 1005.29 1005.39 1005.62 1005.98 1006.45 1006.98 1007.53 1008.04 1008.48 1008.82 1009.05 1009.18 1009.23 1009.25 1009.25 1009.26 1009.30 1009.36 1009.44 1009.53 1009.60 1009.65 1009.68 1009.68 1009.67 1009.65 1009.62 1009.59
1009.98 1009.97 1009.91 1009.79 1009.61 1009.35 1009.02 1008.63 1008.21 1007.79 1007.42 1007.11 1006.87 1006.70 1006.56 1006.43 1006.29 1006.12 1005.91 1005.71 1005.55 1005.47 1005.51 1005.70 1006.04 1006.51 1007.06 1007.63 1008.15 1008.59 1008.90 1009.08 1009.14 1009.12 1009.06 1008.99 1008.95 1008.95 1009.00 1009.08 1009.16 1009.24 1009.27 1009.27 1009.22 1009.14 1009.04 1008.95 1008.88
1010.05 1010.05 1010.04 1009.99 1009.88 1009.70 1009.45 1009.13 1008.77 1008.42 1008.09 1007.82 1007.61 1007.45 1007.32 1007.18 1007.02 1006.80 1006.55 1006.28 1006.04 1005.88 1005.85 1005.98 1006.27 1006.70 1007.22 1007.77 1008.27 1008.68 1008.95 1009.09 1009.09 1009.01 1008.88 1008.76 1008.69 1008.67 1008.71 1008.80 1008.89 1008.96 1008.98 1008.95 1008.85 1008.71 1008.55 1008.40 1008.28
1010.13 1010.20 1010.26 1010.31 1010.30 1010.23 1010.06 1009.82 1009.53 1009.21 1008.92 1008.66 1008.47 1008.32 1008.19 1008.06 1007.88 1007.66 1007.37 1007.06 1006.77 1006.54 1006.44 1006.49 1006.70 1007.05 1007.51 1007.99 1008.44 1008.81 1009.04 1009.13 1009.09 1008.97 1008.81 1008.66 1008.56 1008.53 1008.57 1008.66 1008.76 1008.83 1008.85 1008.79 1008.66 1008.48 1008.27 1008.08 1007.93
1010.32 1010.47 1010.65 1010.83 1010.95 1010.98 1010.92 1010.75 1010.50 1010.21 1009.91 1009.65 1009.43 1009.27 1009.13 1009.00 1008.83 1008.61 1008.32 1008.00 1007.68 1007.40 1007.23 1007.19 1007.31 1007.57 1007.93 1008.33 1008.71 1009.01 1009.20 1009.26 1009.20 1009.05 1008.88 1008.72 1008.61 1008.57 1008.61 1008.69 1008.79 1008.86 1008.87 1008.80 1008.66 1008.45 1008.22 1008.00 1007.83
1010.65 1010.91 1011.23 1011.54 1011.80 1011.97 1012.00 1011.89 1011.67 1011.37 1011.04 1010.73 1010.47 1010.26 1010.09 1009.95 1009.79 1009.58 1009.31 1009.01 1008.68 1008.38 1008.15 1008.04 1008.06 1008.21 1008.47 1008.77 1009.07 1009.31 1009.46 1009.49 1009.42 1009.27 1009.09 1008.92 1008.80 1008.75 1008.77 1008.84 1008.92 1008.98 1008.99 1008.92 1008.77 1008.57 1008.34 1008.12 1007.95
1011.10 1011.48 1011.93 1012.39 1012.79 1013.07 1013.20 1013.15 1012.95 1012.63 1012.25 1011.86 1011.52 1011.24 1011.02 1010.84 1010.68 1010.49 1010.26 1009.98 1009.67 1009.37 1009.11 1008.93 1008.87 1008.92 1009.07 1009.27 1009.49 1009.67 1009.78 1009.80 1009.72 1009.57 1009.39 1009.22 1009.09 1009.01 1009.00 1009.03 1009.09 1009.13 1009.12 1009.05 1008.92 1008.74 1008.53 1008.33 1008.17
1011.60 1012.07 1012.64 1013.23 1013.76 1014.17 1014.39 1014.40 1014.21 1013.86 1013.42 1012.95 1012.52 1012.15 1011.85 1011.63 1011.45 1011.28 1011.08 1010.84 1010.56 1010.27 1010.00 1009.78 1009.64 1009.60 1009.65 1009.76 1009.90 1010.03 1010.10 1010.10 1010.03 1009.89 1009.71 1009.53 1009.37 1009.26 1009.20 1009.19 1009.20 1009.21 1009.19 1009.12 1009.01 1008.86 1008.68 1008.52 1008.39
1012.07 1012.59 1013.23 1013.92 1014.56 1015.07 1015.39 1015.47 1015.31 1014.95 1014.47 1013.92 1013.39 1012.93 1012.56 1012.28 1012.07 1011.90 1011.73 1011.52 1011.28 1011.02 1010.74 1010.49 1010.30 1010.19 1010.15 1010.18 1010.24 1010.31 1010.36 1010.34 1010.27 1010.13 1009.96 1009.76 1009.58 1009.43 1009.31 1009.24 1009.20 1009.18 1009.14 1009.08 1008.99 1008.87 1008.74 1008.62 1008.52
1012.44 1012.95 1013.61 1014.35 1015.06 1015.66 1016.07 1016.22 1016.12 1015.79 1015.29 1014.70 1014.10 1013.56 1013.11 1012.77 1012.53 1012.35 1012.19 1012.01 1011.80 1011.56 1011.30 1011.03 1010.80 1010.62 1010.51 1010.46 1010.46 1010.48 1010.49 1010.46 1010.39 1010.26 1010.08 1009.88 1009.67 1009.48 1009.32 1009.20 1009.11 1009.04 1008.99 1008.93 1008.86 1008.78 1008.69 1008.61 1008.54
1012.68 1013.11 1013.73 1014.45 1015.20 1015.86 1016.35 1016.59 1016.57 1016.30 1015.83 1015.24 1014.62 1014.03 1013.53 1013.13 1012.85 1012.65 1012.48 1012.32 1012.14 1011.91 1011.65 1011.38 1011.11 1010.88 1010.71 1010.59 1010.53 1010.50 1010.48 1010.44 1010.37 1010.25 1010.08 1009.88 1009.66 1009.45 1009.25 1009.09 1008.97 1008.87 1008.80 1008.75 1008.70 1008.64 1008.58 1008.52 1008.47
1012.82 1013.11 1013.63 1014.29 1015.02 1015.71 1016.27 1016.60 1016.68 1016.50 1016.11 1015.57 1014.96 1014.36 1013.83 1013.41 1013.08 1012.86 1012.68 1012.52 1012.34 1012.12 1011.86 1011.58 1011.28 1011.01 1010.78 1010.61 1010.50 1010.42 1010.37 1010.32 1010.25 1010.15 1010.00 1009.81 1009.60 1009.38 1009.18 1009.00 1008.85 1008.75 1008.67 1008.61 1008.57 1008.53 1008.48 1008.43 1008.37
Thickness
5818 5823 5826 5822 5807 5800 5803 5824 5838 5840 5842 5850 5852 5845 5834 5826 5815 5801 5833 5844 5838 5827 5818 5810 5805 5801 5797 5794 5790 5787 5784 5781 5778 5775 5772 5770 5767 5764 5761 5759 5756 5754 5752 5751 5749 5747 5747 5746 5744
5820 5827 5824 5815 5797 5789 5806 5832 5836 5843 5850 5853 5850 5846 5836 5829 5835 5833 5837 5840 5837 5827 5817 5810 5803 5799 5795 5791 5788 5784 5781 5778 5775 5772 5770 5766 5764 5761 5759 5756 5753 5751 5749 5748 5746 5745 5744 5743 5741
5818 5826 5814 5807 5797 5797 5812 5839 5842 5850 5855 5850 5844 5844 5835 5827 5835 5835 5839 5840 5835 5826 5817 5807 5801 5797 5793 5789 5785 5782 5779 5775 5772 5769 5766 5763 5761 5758 5755 5753 5751 5748 5746 5745 5743 5742 5741 5740 5739
5817 5818 5813 5802 5800 5818 5828 5842 5846 5844 5848 5850 5843 5833 5834 5840 5839 5839 5841 5840 5832 5825 5815 5805 5799 5795 5790 5786 5783 5779 5776 5773 5769 5766 5763 5760 5758 5755 5752 5750 5748 5746 5744 5742 5740 5739 5738 5737 5736
5817 5809 5799 5800 5812 5831 5843 5850 5847 5841 5840 5843 5840 5824 5822 5837 5844 5842 5839 5837 5830 5823 5813 5803 5797 5792 5788 5784 5780 5777 5773 5770 5766 5763 5760 5757 5754 5752 5749 5747 5745 5743 5741 5739 5737 5736 5735 5734 5733
5806 5808 5795 5799 5815 5835 5848 5853 5847 5840 5841 5842 5836 5823 5818 5834 5834 5835 5836 5833 5829 5821 5810 5800 5794 5789 5785 5781 5777 5773 5770 5767 5764 5761 5758 5755 5752 5749 5746 5744 5742 5740 5738 5737 5735 5733 5732 5731 5731
5800 5801 5798 5810 5818 5829 5844 5855 5846 5839 5834 5836 5838 5820 5817 5825 5830 5832 5833 5830 5825 5818 5808 5798 5792 5787 5782 5778 5774 5770 5767 5763 5760 5757 5755 5752 5749 5746 5744 5741 5739 5738 5736 5734 5733 5731 5730 5729 5728
5813 5803 5800 5811 5817 5826 5846 5851 5849 5842 5836 5846 5840 5819 5811 5820 5829 5829 5827 5824 5819 5813 5805 5799 5792 5786 5781 5776 5771 5768 5764 5761 5757 5754 5752 5749 5747 5744 5742 5739 5737 5735 5734 5732 5730 5729 5728 5727 5726
5817 5794 5792 5808 5820 5828 5844 5839 5845 5849 5840 5836 5837 5832 5827 5826 5826 5820 5816 5813 5810 5807 5803 5798 5793 5786 5781 5776 5771 5765 5761 5758 5754 5752 5749 5746 5744 5743 5741 5738 5736 5733 5732 5730 5729 5727 5725 5724 5724
5809 5790 5803 5825 5835 5834 5836 5833 5837 5833 5824 5819 5821 5826 5827 5821 5816 5810 5806 5802 5800 5797 5796 5795 5791 5785 5781 5777 5770 5764 5760 5756 5753 5750 5747 5744 5742 5741 5740 5738 5735 5732 5730 5728 5726 5724 5723 5722 5722
5809 5801 5814 5828 5837 5838 5832 5832 5837 5824 5811 5814 5811 5813 5817 5814 5809 5805 5802 5799 5795 5794 5791 5791 5786 5782 5778 5774 5768 5763 5759 5755 5751 5748 5745 5742 5741 5739 5738 5735 5733 5729 5727 5725 5724 5722 5721 5721 5720
5810 5813 5818 5826 5832 5830 5827 5829 5827 5822 5817 5824 5821 5816 5812 5807 5803 5801 5798 5795 5793 5790 5788 5787 5783 5777 5773 5769 5765 5761 5757 5753 5749 5745 5742 5739 5737 5736 5734 5731 5729 5726 5724 5723 5722 5720 5719 5718 5717
5808 5813 5821 5827 5828 5827 5825 5822 5820 5818 5826 5825 5820 5815 5809 5805 5802 5801 5799 5795 5791 5787 5783 5782 5778 5771 5768 5764 5760 5758 5754 5750 5746 5742 5737 5735 5733 5731 5730 5727 5724 5722 5720 5720 5718 5716 5715 5714 5713
5813 5816 5819 5823 5823 5825 5818 5818 5816 5814 5823 5819 5813 5808 5806 5803 5800 5796 5793 5789 5785 5782 5779 5777 5773 5768 5763 5759 5755 5752 5750 5746 5742 5737 5733 5731 5728 5726 5724 5722 5720 5718 5716 5715 5713 5712 5710 5708 5707
5818 5808 5809 5817 5820 5821 5816 5802 5808 5815 5816 5808 5805 5803 5799 5798 5796 5791 5786 5783 5780 5776 5774 5771 5768 5764 5759 5754 5751 5748 5745 5741 5737 5734 5730 5726 5723 5721 5719 5716 5714 5713 5711 5710 5709 5706 5705 5703 5702
5808 5797 5790 5810 5818 5818 5804 5784 5805 5815 5808 5800 5798 5797 5794 5792 5790 5787 5783 5779 5775 5770 5766 5764 5764 5759 5754 5749 5745 5742 5739 5736 5733 5729 5726 5722 5718 5716 5714 5712 5710 5708 5706 5705 5702 5700 5698 5696 5694
5789 5783 5787 5803 5817 5815 5803 5789 5801 5812 5806 5798 5795 5794 5791 5786 5784 5780 5777 5772 5769 5765 5760 5757 5755 5752 5749 5744 5739 5736 5733 5730 5727 5725 5721 5718 5714 5712 5710 5707 5705 5704 5702 5699 5697 5695 5691 5689 5688
5776 5784 5788 5793 5808 5808 5798 5792 5800 5805 5801 5796 5794 5793 5787 5781 5776 5773 5770 5765 5762 5759 5755 5750 5747 5744 5741 5737 5733 5730 5727 5725 5723 5720 5716 5713 5710 5708 5705 5703 5701 5699 5696 5693 5691 5688 5686 5684 5683
5789 5784 5780 5791 5811 5802 5794 5790 5795 5801 5797 5789 5787 5785 5780 5776 5773 5769 5764 5761 5757 5752 5748 5743 5739 5736 5733 5729 5725 5722 5720 5719 5717 5715 5712 5709 5705 5702 5700 5698 5695 5693 5690 5687 5685 5682 5680 5679 5678
5787 5779 5779 5792 5806 5798 5790 5788 5795 5796 5791 5787 5781 5779 5775 5769 5766 5762 5758 5755 5751 5746 5742 5738 5734 5730 5726 5722 5720 5718 5715 5714 5712 5709 5706 5703 5700 5697 5696 5692 5689 5687 5684 5682 5679 5677 5674 5673 5672
5780 5779 5780 5782 5794 5798 5787 5777 5787 5790 5790 5786 5781 5777 5771 5767 5760 5757 5753 5750 5745 5740 5736 5733 5729 5724 5719 5716 5714 5712 5709 5707 5704 5702 5700 5699 5696 5693 5690 5688 5684 5681 5679 5676 5674 5672 5669 5665 5665
5770 5787 5788 5785 5780 5776 5782 5759 5772 5778 5775 5773 5769 5768 5765 5761 5757 5753 5749 5744 5740 5736 5733 5728 5723 5718 5714 5711 5708 5705 5701 5699 5698 5697 5695 5693 5691 5688 5685 5682 5679 5676 5673 5671 5669 5667 5664 5660 5657
5780 5792 5789 5784 5777 5771 5778 5766 5765 5772 5759 5761 5763 5763 5760 5757 5752 5747 5743 5739 5736 5732 5727 5722 5716 5712 5709 5706 5703 5698 5696 5695 5694 5692 5689 5687 5685 5683 5680 5676 5673 5670 5668 5665 5663 5661 5658 5655 5651
5788 5785 5784 5785 5776 5755 5766 5758 5747 5756 5752 5755 5758 5757 5755 5751 5747 5742 5738 5734 5729 5726 5721 5715 5709 5704 5702 5699 5697 5693 5691 5689 5686 5685 5682 5680 5679 5677 5674 5672 5668 5665 5663 5661 5658 5656 5653 5650 5646
5778 5761 5743 5736 5740 5743 5765 5756 5742 5758 5761 5758 5753 5751 5748 5743 5739 5734 5730 5726 5721 5717 5713 5709 5703 5698 5696 5694 5691 5688 5686 5683 5681 5678 5676 5675 5673 5670 5668 5666 5663 5660 5658 5656 5654 5652 5649 5646 5642
5765 5758 5732 5711 5717 5736 5754 5744 5743 5760 5760 5757 5753 5747 5741 5736 5732 5728 5725 5720 5715 5711 5708 5703 5698 5694 5691 5688 5685 5683 5681 5678 5676 5674 5672 5670 5669 5666 5663 5661 5659 5656 5654 5652 5649 5647 5645 5642 5638
5759 5755 5760 5740 5737 5732 5741 5743 5745 5754 5748 5745 5742 5739 5734 5729 5726 5722 5719 5715 5710 5706 5701 5697 5692 5688 5685 5683 5680 5678 5675 5672 5671 5669 5666 5664 5663 5662 5659 5657 5654 5652 5650 5647 5645 5642 5640 5637 5633
5777 5766 5750 5732 5713 5709 5724 5730 5722 5727 5730 5732 5731 5727 5727 5724 5719 5716 5712 5709 5705 5701 5697 5692 5688 5683 5680 5678 5675 5674 5671 5669 5667 5664 5661 5660 5658 5657 5655 5653 5650 5648 5646 5643 5640 5637 5635 5632 5629
5762 5757 5746 5733 5727 5709 5702 5713 5734 5728 5727 5726 5724 5722 5718 5716 5711 5708 5705 5702 5698 5695 5691 5686 5682 5678 5675 5673 5671 5669 5667 5665 5664 5661 5658 5656 5655 5653 5651 5649 5646 5644 5642 5639 5636 5633 5630 5628 5625
5763 5753 5744 5720 5716 5717 5707 5708 5738 5730 5725 5721 5716 5713 5713 5710 5706 5702 5698 5694 5691 5688 5684 5680 5677 5674 5671 5670 5668 5665 5664 5661 5659 5657 5655 5653 5651 5649 5647 5645 5642 5641 5638 5635 5632 5629 5626 5623 5620